EW7001 Weather Reports


Display with metric or nautical units.
time (UTC)temp
F
wind
direction
speed
MPH
gust
MPH
rain 1hr
in
rain 24hr
in
rain mn
in
humidity
%
barometer
mb
20260906081549 65 318 1.0 3.0 0.00 0.02 0.02 59 1004.6
20260906080049 65 23 1.0 3.0 0.00 0.02 0.02 58 1004.5
20260906074548 64 336 2.0 5.0 0.00 0.02 0.02 56 1004.5
20260906073044 66 310 2.0 4.0 0.00 0.02 0.02 58 1004.7
20260906071545 67 89 0.0 5.0 0.00 0.02 0.02 56 1004.7
20260906070042 66 124 0.0 3.0 0.00 0.02 0.02 53 1004.8
20260906064544 66 1 1.0 2.0 0.00 0.02 0.02 49 1005.0
20260906063014 67 124 1.0 6.0 0.00 0.02 0.02 49 1005.3
20260906061510 62 165 0.0 2.0 0.00 0.02 0.02 51 1005.6
20260906060010 62 105 0.0 2.0 0.00 0.02 0.02 50 1005.5
20260906054506 62 135 0.0 2.0 0.00 0.02 0.02 49 1005.6
20260906053001 64 135 0.0 3.0 0.00 0.02 0.02 47 1005.4
20260906051611 65 178 0.0 2.0 0.00 0.02 0.02 48 1005.4
20260906050057 66 314 1.0 3.0 0.00 0.02 0.02 48 1005.4
20260906044526 65 46 1.0 2.0 0.00 0.02 0.02 46 1005.4
20260906043023 66 324 0.0 2.0 0.00 0.02 0.02 43 1005.4
20260906041518 67 140 2.0 5.0 0.00 0.02 0.02 43 1005.5
20260906040023 69 89 0.0 4.0 0.00 0.02 0.02 39 1005.3
20260906034514 73 1 0.0 3.0 0.00 0.02 0.02 38 1005.3
20260906033032 72 1 2.0 5.0 0.00 0.02 0.02 38 1005.2
20260906031509 73 63 1.0 5.0 0.00 0.02 0.02 36 1005.4
20260906030001 74 314 0.0 2.0 0.00 0.02 0.02 34 1005.1
20260906024613 75 340 1.0 3.0 0.00 0.02 0.02 32 1004.8
20260906023103 77 295 1.0 6.0 0.00 0.02 0.02 30 1004.6
20260906021552 78 46 1.0 7.0 0.00 0.02 0.02 29 1004.4
20260906020053 78 30 2.0 5.0 0.00 0.02 0.02 26 1004.3
20260906014551 80 1 1.0 5.0 0.00 0.06 0.02 25 1004.0
20260906013051 81 347 2.0 7.0 0.00 0.06 0.02 24 1003.9
20260906011546 83 32 2.0 5.0 0.00 0.06 0.02 23 1003.6
20260906010046 84 28 3.0 9.0 0.00 0.06 0.02 22 1003.8
20260906004546 86 25 3.0 8.0 0.00 0.71 0.02 21 1003.6
20260906003045 86 352 3.0 8.0 0.00 0.71 0.02 21 1003.7
20260906001542 87 81 3.0 8.0 0.02 0.71 0.02 21 1003.6
20260906000042 87 15 2.0 9.0 0.02 0.71 0.02 20 1003.5
20260905234541 89 340 4.0 12.0 0.02 1.06 0.02 19 1003.3
20260905233049 90 37 5.0 18.0 0.02 1.06 0.02 19 1003.4
20260905231537 89 241 6.0 15.0 0.00 1.04 0.00 19 1003.1
20260905230034 90 47 4.0 8.0 0.00 1.04 0.00 18 1003.3
20260905224604 89 46 1.0 7.0 0.00 2.90 0.00 19 1003.3
20260905223025 89 79 4.0 12.0 0.00 2.90 0.00 19 1003.4
20260905221555 89 35 2.0 8.0 0.00 2.90 0.00 20 1003.5
20260905220049 88 355 3.0 8.0 0.00 2.90 0.00 21 1003.7
20260905214549 88 305 1.0 8.0 0.00 4.67 0.00 20 1003.9
20260905213043 87 279 2.0 8.0 0.00 4.67 0.00 20 1004.1
20260905211548 89 28 4.0 10.0 0.00 4.67 0.00 20 1004.3
20260905210048 89 86 4.0 9.0 0.00 4.67 0.00 20 1004.3
20260905204537 88 334 3.0 9.0 0.00 5.55 0.00 21 1004.3
20260905203034 88 318 3.0 10.0 0.00 5.55 0.00 20 1004.4
20260905201529 87 269 3.0 12.0 0.00 5.55 0.00 21 1004.4
20260905200028 86 101 5.0 10.0 0.00 5.55 0.00 21 1004.5
20260905194520 85 306 3.0 9.0 0.00 6.17 0.00 22 1004.7
20260905193018 85 142 2.0 10.0 0.00 6.17 0.00 22 1004.7
20260905191516 84 321 4.0 9.0 0.00 6.17 0.00 23 1004.8
20260905190011 83 32 3.0 9.0 0.00 6.17 0.00 24 1004.8
20260905184552 83 1 3.0 8.0 0.00 7.77 0.00 25 1004.8
20260905183038 82 311 6.0 9.0 0.00 7.77 0.00 23 1005.0
20260905181531 80 28 3.0 7.0 0.00 7.77 0.00 26 1005.0
20260905180032 79 21 3.0 6.0 0.00 7.77 0.00 27 1005.1
20260905174525 78 306 3.0 8.0 0.00 9.27 0.00 28 1005.1
20260905173021 77 178 3.0 7.0 0.00 9.27 0.00 27 1005.2
20260905171516 77 260 1.0 5.0 0.00 9.27 0.00 28 1005.2
20260905170012 75 286 2.0 6.0 0.00 9.27 0.00 30 1005.1
20260905164516 75 20 1.0 8.0 0.00 1.04 9.27 31 1005.1
20260905163013 74 218 1.0 6.0 0.00 1.04 9.27 31 1005.0
20260905161509 73 11 2.0 7.0 0.00 1.04 9.27 32 1004.9
20260905160009 72 314 2.0 8.0 0.00 1.04 9.27 33 1004.8
20260905154510 71 283 2.0 7.0 0.00 1.13 9.27 34 1004.9
20260905153014 70 353 3.0 7.0 0.00 1.13 9.27 35 1005.1
20260905151516 69 1 3.0 9.0 0.00 1.13 9.27 35 1005.2
20260905150007 68 309 3.0 7.0 0.00 1.13 9.27 36 1004.8
20260905144506 67 295 3.0 6.0 0.00 1.19 9.27 36 1004.8
20260905144502 67 321 3.0 6.0 0.00 1.19 9.27 36 1004.8
20260905143104 67 283 4.0 7.0 0.00 1.19 9.27 36 1004.6
20260905141604 66 321 2.0 6.0 0.00 1.19 9.27 37 1004.6
20260905140055 65 327 2.0 5.0 0.00 1.19 9.27 37 1004.5
20260905134556 64 326 1.0 2.0 0.00 1.19 9.27 38 1004.4
20260905133050 63 308 2.0 4.0 0.00 1.19 9.27 39 1004.4
20260905131553 61 219 1.0 3.0 0.00 1.19 9.27 39 1004.2
20260905130047 60 286 0.0 3.0 0.00 1.19 9.27 40 1004.0
20260905124544 61 314 1.0 5.0 0.00 1.20 9.27 39 1003.5
20260905123049 59 269 1.0 4.0 0.00 1.20 9.27 40 1003.5
20260905121550 59 223 1.0 4.0 0.00 1.20 9.27 40 1003.3
20260905120034 62 303 0.0 3.0 0.00 1.20 9.27 37 1003.0
20260905114531 66 331 1.0 4.0 0.00 1.20 9.27 34 1003.0
20260905113030 68 20 1.0 8.0 0.00 1.20 9.27 32 1002.8
20260905111528 68 298 2.0 8.0 0.00 1.20 9.27 33 1002.5
20260905110026 65 232 3.0 5.0 0.00 1.20 9.27 35 1002.5
20260905104525 65 316 2.0 6.0 0.00 1.20 9.27 36 1002.5
20260905103025 65 300 3.0 9.0 0.00 1.20 9.27 36 1002.4
20260905101525 64 214 6.0 8.0 0.00 1.20 9.27 36 1002.1
20260905100034 66 219 5.0 8.0 0.00 1.20 9.27 34 1002.2
20260905094519 67 196 5.0 9.0 0.00 1.20 9.27 33 1002.1
20260905093015 66 210 6.0 9.0 0.00 1.20 9.27 33 1001.9
20260905091514 66 207 5.0 9.0 0.00 1.20 9.27 33 1001.9
20260905090044 66 193 5.0 9.0 0.00 1.20 9.27 33 1001.9
20260905084550 65 208 5.0 7.0 0.00 1.20 9.27 34 1001.8
20260905083057 65 193 5.0 8.0 0.00 1.20 9.27 33 1001.9